This is the latest recevied weather packets stored in our database for station/object KI5UTS-13. If no packets are shown the sender has not sent any weather packets the latest 10 day(s).
| Time | Temp. | Humidity | Pressure | Rain* | Wind** | Luminosity | Snow |
|---|---|---|---|---|---|---|---|
| 1788543053 | 25.56° C | 99% | 1017.1 hPa | 0 mm | - | 305 W/m² | - |
| 1788542749 | 25.56° C | 99% | 1017.1 hPa | 0 mm | - | 317 W/m² | - |
| 1788542448 | 25.56° C | 99% | 1017 hPa | 0 mm | - | 251 W/m² | - |
| 1788542143 | 25° C | 99% | 1017.2 hPa | 0 mm | - | 212 W/m² | - |
| 1788541839 | 25° C | 99% | 1017.1 hPa | 0 mm | - | 213 W/m² | - |
| 1788541534 | 25° C | 99% | 1017.2 hPa | 0 mm | - | 192 W/m² | - |
| 1788541231 | 25° C | 99% | 1017.4 hPa | 0 mm | - | 166 W/m² | - |
| 1788540928 | 24.44° C | 99% | 1017.3 hPa | 0 mm | - | 156 W/m² | - |
| 1788540623 | 24.44° C | 99% | 1017 hPa | 0 mm | - | 137 W/m² | - |
| 1788540318 | 24.44° C | 99% | 1017.4 hPa | 0 mm | - | 114 W/m² | - |
| 1788540015 | 24.44° C | 99% | 1017.3 hPa | 0 mm | - | 97 W/m² | - |
| 1788539714 | 24.44° C | 99% | 1017.3 hPa | 0 mm | - | 95 W/m² | - |
| 1788539409 | 24.44° C | 99% | 1017.2 hPa | 0 mm | - | 98 W/m² | - |
| 1788539103 | 24.44° C | 99% | 1017.2 hPa | 0 mm | - | 99 W/m² | - |
| 1788538799 | 24.44° C | 99% | 1017.4 hPa | 0 mm | - | 98 W/m² | - |
| 1788538493 | 24.44° C | 99% | 1017.5 hPa | 0 mm | - | 98 W/m² | - |
| 1788538189 | 24.44° C | 99% | 1017.5 hPa | 0 mm | - | 97 W/m² | - |
| 1788537883 | 24.44° C | 99% | 1017.8 hPa | 0 mm | - | 93 W/m² | - |
| 1788537578 | 24.44° C | 99% | 1017.8 hPa | 0 mm | - | 91 W/m² | - |
| 1788537274 | 24.44° C | 99% | 1017.4 hPa | 0 mm | - | 85 W/m² | - |
| 1788536972 | 24.44° C | 99% | 1017.4 hPa | 1.78 mm | - | 75 W/m² | - |
| 1788536667 | 24.44° C | 99% | 1017.8 hPa | 1.78 mm | - | 62 W/m² | - |
| 1788536362 | 24.44° C | 99% | 1017.4 hPa | 0 mm | - | 53 W/m² | - |
| 1788536057 | 23.89° C | 99% | 1017.6 hPa | 0 mm | - | 46 W/m² | - |
| 1788535753 | 23.89° C | 99% | 1017.7 hPa | 1.27 mm | - | 39 W/m² | - |
* Rain latest hour (hover to see other rain measurements)
** Current wind speed in m/s (hover to see current wind gust speed)